[[{"header":{"parameterUnit":"m.s-1","parameterCategory":1,"la1":30.2991,"la2":30.254,"lo1":-89.0895,"lo2":-89.0444,"dy":0.0017,"dx":0.0017,"nx":28,"ny":28,"refTime":"2025-07-13T09:00:00:Z","depth":0,"parameterNumber":2,"parameterNumberName":"U-component_of_WINDS"},"data":[0,0,0,0,0,0,0,0,0,0,0,0,0,0,0,0,0,0,0,0,0,0,0,0,0,0,0,0,0,0,0,0,0,0,0,0,0,0,0,0,0,0,0,0,0,0,0,0,0,0,0,0,0,0,0,0,0,0,0.3784,0.3785,0,0.389,0.3891,0.3893,0.3901,0.39,0.3898,0.3897,0.4012,0.4016,0.402,0,0,0,0,0,0,0,0,0,0,0,0,0,0.3593,0.3597,0.3783,0.3785,0.3786,0.389,0.3891,0.3893,0.3901,0.39,0.3898,0.3897,0.4011,0.4016,0.4021,0,0,0,0,0,0,0,0,0,0,0,0,0,0.3686,0.3598,0.3783,0.3803,0.3805,0.389,0.3892,0.3893,0.3901,0.39,0.3898,0.3896,0.4009,0.4015,0.4021,0.4096,0,0,0.4041,0.4043,0,0,0,0,0,0,0,0,0.368,0.3693,0.3798,0.3801,0.3805,0.388,0.3867,0.3961,0.3902,0.3865,0.3897,0.3895,0.397,0.398,0.4004,0.4101,0.4106,0.4041,0.4045,0.4048,0.4049,0,0,0,0,0,0,0,0.3674,0.3688,0.3826,0.38,0.3804,0.3808,0.3819,0.3885,0.3927,0.3868,0.3869,0.3881,0.3972,0.3998,0.4006,0.4108,0.4041,0.4046,0.405,0.4053,0.4273,0.4275,0,0,0,0,0,0,0.3663,0.3683,0.3823,0.3829,0.3737,0.3813,0.3825,0.3858,0.3926,0.3934,0.3883,0.3881,0.3988,0.3999,0.401,0.4103,0.4048,0.4053,0.4057,0.4271,0.4274,0.4276,0,0,0,0,0,0,0.3659,0.3675,0.3818,0.3756,0.3775,0.3818,0.3855,0.3861,0.3887,0.3937,0.3945,0.3901,0.3987,0.4002,0.4074,0.4107,0.4056,0.4062,0.4269,0.4272,0.4275,0.4287,0,0,0,0,0,0,0.3653,0.3674,0.3701,0.3757,0.3778,0.3878,0.3856,0.3864,0.3897,0.3896,0.3956,0.3964,0.3987,0.4065,0.4081,0.4115,0.4067,0.4266,0.427,0.4274,0.4284,0.4291,0.4296,0,0,0,0,0,0.3647,0.3701,0.3702,0.3719,0.3812,0.388,0.3893,0.3915,0.3899,0.3928,0.396,0.3962,0.4101,0.4072,0.409,0.4126,0.4264,0.4269,0.4273,0.4282,0.4289,0.4296,0,0,0,0,0,0,0.365,0.3709,0.3711,0.3784,0.3827,0.3881,0.3918,0.3923,0.3972,0.397,0.3998,0.4011,0.4083,0.4112,0.408,0.4203,0.4181,0.4189,0.4181,0.4189,0.4194,0.4187,0.4072,0,0,0,0,0,0.3659,0.3707,0.3757,0.3817,0.3838,0.3874,0.3905,0.3919,0.3965,0.3984,0.4021,0.4068,0.4122,0.4157,0.4209,0.4288,0.4303,0.4322,0.4328,0.4333,0.434,0.4386,0.4396,0.4292,0.4291,0.4291,0,0,0.3678,0.3716,0.3746,0.3819,0.3853,0.3905,0.389,0.3945,0.3984,0.3993,0.4063,0.4093,0.4147,0.4223,0.4259,0.4249,0.4372,0.4339,0.4342,0.4347,0.4392,0.4401,0.441,0.4295,0.4294,0.4294,0,0,0.374,0.3773,0.3828,0.3863,0.3915,0.3939,0.3952,0.4006,0.4025,0.4096,0.4104,0.4153,0.4244,0.4283,0.4315,0.4392,0.4397,0.4409,0.444,0.4484,0.4492,0.45,0.4529,0.4539,0.4416,0.4416,0.4416,0,0.3759,0.3835,0.3856,0.3911,0.3943,0.3952,0.4009,0.4042,0.411,0.4133,0.4121,0.4238,0.4275,0.4361,0.438,0.4405,0.4422,0.4402,0.4489,0.4497,0.4504,0.4532,0.4543,0.4417,0.4417,0.4417,0.4417,0,0.3855,0.3908,0.3946,0.4009,0.4047,0.4102,0.4134,0.4169,0.418,0.4206,0.428,0.4324,0.4386,0.4408,0.4419,0.4496,0.4489,0.4483,0.4462,0.4515,0.4542,0.4553,0.4419,0.4418,0.4418,0.4418,0,0,0.3923,0.3997,0.4011,0.404,0.4099,0.4141,0.4198,0.4257,0.4288,0.4334,0.4384,0.4462,0.4457,0.4493,0.4509,0.4548,0.4608,0.4537,0.4539,0.455,0.4698,0.4703,0.4715,0.4611,0.4613,0.4615,0.4694,0,0.3992,0.4091,0.4113,0.4199,0.425,0.4259,0.4309,0.4352,0.4378,0.4426,0.4455,0.4511,0.4498,0.452,0.4559,0.4593,0.4639,0.4587,0.466,0.4662,0.4647,0.4729,0.4734,0.4807,0.4705,0.4706,0.4708,0,0.4087,0.4134,0.4225,0.4278,0.43,0.4344,0.4401,0.4446,0.4495,0.4512,0.4552,0.4564,0.4626,0.4601,0.4688,0.4653,0.4684,0.4705,0.4709,0.4717,0.4689,0.4741,0.483,0.4841,0.4724,0.4723,0.4722,0,0.4128,0.4215,0.4281,0.4305,0.4369,0.44,0.4428,0.4475,0.451,0.456,0.4583,0.4641,0.4673,0.4718,0.4746,0.4725,0.4832,0.4809,0.4849,0.4848,0.4871,0.487,0.4968,0.489,0.4889,0.4889,0.4889,0,0.4204,0.426,0.43,0.4341,0.4404,0.4429,0.4492,0.4521,0.4563,0.4611,0.4624,0.4669,0.4703,0.4754,0.4777,0.4846,0.4861,0.4877,0.4883,0.4877,0.4875,0.4898,0.4894,0.4892,0.4892,0.4891,0.489,0,0.4261,0.429,0.4363,0.4416,0.4431,0.4476,0.4523,0.4564,0.459,0.4652,0.4667,0.4709,0.477,0.4802,0.4879,0.4894,0.4972,0.4975,0.4955,0.4958,0.4996,0.4993,0.5114,0.5132,0.5041,0.5041,0.5042,0,0.4308,0.4351,0.4409,0.4441,0.447,0.4521,0.4557,0.4583,0.462,0.468,0.4715,0.4775,0.4825,0.4922,0.4961,0.502,0.5024,0.5063,0.5033,0.5026,0.5027,0.5024,0.5029,0.5068,0.5069,0.507,0.507,0,0.4389,0.4401,0.445,0.4505,0.4546,0.4591,0.4635,0.4661,0.4696,0.4737,0.4798,0.4837,0.4914,0.4975,0.5037,0.5069,0.5076,0.5079,0.5092,0.5086,0.5074,0.5082,0.497,0.5076,0.5076,0.5075,0.5075,0.5075,0.4443,0.4482,0.4529,0.4584,0.462,0.4662,0.4703,0.4734,0.4785,0.4849,0.4862,0.4927,0.4978,0.5061,0.5094,0.5147,0.514,0.5158,0.5163,0.5167,0.5169,0.5064,0.5159,0.5159,0.5158,0.5158,0.5158,0,0.4526,0.4556,0.4606,0.4667,0.4711,0.4712,0.4762,0.4799,0.4856,0.4901,0.495,0.5021,0.508,0.5124,0.5185,0.5219,0.5224,0.5234,0.5233,0.524,0.5172,0.5155,0.5229,0.5229,0.5229,0.5229,0.5229,0.5229,0.4574,0.464,0.4658,0.4744,0.4775,0.4837,0.4866,0.4905,0.4941,0.502,0.5068,0.5095,0.5141,0.5206,0.5261,0.5272,0.5295,0.5305,0.5317,0.5252,0.5245,0.5238,0.5222,0.5309,0.5309,0.5381,0.5382,0.5382]},{"header":{"parameterUnit":"m.s-1","parameterCategory":1,"la1":30.2991,"la2":30.254,"lo1":-89.0895,"lo2":-89.0444,"dy":0.0017,"dx":0.0017,"nx":28,"ny":28,"refTime":"2025-07-13T09:00:00:Z","depth":0,"parameterNumber":3,"parameterNumberName":"V-component_of_WINDS"},"data":[0,0,0,0,0,0,0,0,0,0,0,0,0,0,0,0,0,0,0,0,0,0,0,0,0,0,0,0,0,0,0,0,0,0,0,0,0,0,0,0,0,0,0,0,0,0,0,0,0,0,0,0,0,0,0,0,0,0,0.5487,0.5487,0,0.5516,0.5516,0.5517,0.5521,0.5521,0.5521,0.5521,0.555,0.5551,0.5552,0,0,0,0,0,0,0,0,0,0,0,0,0,0.5433,0.5434,0.5487,0.5487,0.5488,0.5516,0.5516,0.5517,0.5522,0.5521,0.5521,0.5521,0.555,0.5551,0.5552,0,0,0,0,0,0,0,0,0,0,0,0,0,0.5459,0.5434,0.5487,0.5493,0.5494,0.5516,0.5516,0.5517,0.5522,0.5521,0.5521,0.552,0.5549,0.5551,0.5552,0.5569,0,0,0.5557,0.5558,0,0,0,0,0,0,0,0,0.5457,0.5461,0.5492,0.5493,0.5494,0.5515,0.5508,0.5534,0.5522,0.5511,0.5521,0.552,0.5539,0.5541,0.5547,0.5571,0.5572,0.5557,0.5558,0.5559,0.5559,0,0,0,0,0,0,0,0.5456,0.546,0.5498,0.5493,0.5494,0.5494,0.5497,0.5513,0.5527,0.5512,0.5513,0.5516,0.5539,0.5546,0.5548,0.5572,0.5557,0.5558,0.5559,0.556,0.5608,0.5608,0,0,0,0,0,0,0.5453,0.5458,0.5498,0.5499,0.5474,0.5495,0.5499,0.5509,0.5527,0.5529,0.5516,0.5516,0.5543,0.5546,0.5549,0.5568,0.5559,0.556,0.5561,0.5607,0.5608,0.5608,0,0,0,0,0,0,0.5452,0.5456,0.5496,0.5479,0.5484,0.5497,0.5507,0.5509,0.5516,0.553,0.5532,0.5521,0.5543,0.5547,0.5564,0.5569,0.5561,0.5562,0.5607,0.5607,0.5608,0.5608,0,0,0,0,0,0,0.545,0.5456,0.5463,0.5479,0.5485,0.5511,0.5508,0.551,0.5519,0.5519,0.5535,0.5537,0.5543,0.5561,0.5565,0.5571,0.5563,0.5607,0.5607,0.5608,0.5607,0.5608,0.5609,0,0,0,0,0,0.5448,0.5463,0.5464,0.5468,0.5494,0.5512,0.5515,0.5522,0.5519,0.5526,0.5534,0.5536,0.5568,0.5563,0.5567,0.5574,0.5606,0.5607,0.5608,0.5607,0.5608,0.5609,0,0,0,0,0,0,0.5448,0.5465,0.5466,0.5487,0.5497,0.5512,0.5522,0.5524,0.5536,0.5535,0.5543,0.5547,0.5563,0.557,0.5564,0.559,0.5587,0.5588,0.5584,0.5586,0.5586,0.5584,0.5565,0,0,0,0,0,0.545,0.5463,0.5477,0.5494,0.5499,0.5509,0.5517,0.5521,0.5533,0.5538,0.5547,0.5558,0.557,0.5578,0.5591,0.5608,0.561,0.5614,0.5615,0.5616,0.5617,0.5624,0.5626,0.5611,0.5611,0.5611,0,0,0.5456,0.5466,0.5474,0.5494,0.5503,0.5515,0.5513,0.5527,0.5536,0.554,0.5556,0.5563,0.5575,0.5592,0.5599,0.5598,0.5622,0.5617,0.5617,0.5618,0.5625,0.5627,0.5628,0.5611,0.5611,0.5611,0,0,0.5471,0.5481,0.5494,0.5503,0.5516,0.5522,0.5525,0.5539,0.5544,0.556,0.5562,0.5572,0.5594,0.5602,0.5609,0.5623,0.5625,0.5627,0.5631,0.5638,0.5639,0.564,0.5644,0.5646,0.5628,0.5628,0.5628,0,0.5476,0.5494,0.5501,0.5514,0.5521,0.5525,0.5537,0.5545,0.5562,0.5566,0.5565,0.559,0.5599,0.5616,0.5619,0.5625,0.5627,0.5625,0.5639,0.564,0.5641,0.5645,0.5646,0.5628,0.5628,0.5628,0.5628,0,0.5498,0.5511,0.552,0.5535,0.5543,0.5556,0.5564,0.5571,0.5574,0.558,0.5594,0.5605,0.5618,0.5622,0.5626,0.5639,0.5638,0.5637,0.5634,0.5642,0.5646,0.5647,0.5628,0.5628,0.5628,0.5628,0,0,0.5516,0.5532,0.5535,0.5541,0.5554,0.5564,0.5576,0.5588,0.5593,0.5604,0.5613,0.563,0.5628,0.5636,0.564,0.5646,0.5655,0.5645,0.5645,0.5645,0.5668,0.5668,0.5669,0.5655,0.5656,0.5656,0.5666,0,0.5532,0.5553,0.5558,0.5576,0.5586,0.5588,0.5598,0.5607,0.5612,0.5621,0.5626,0.5637,0.5636,0.564,0.5646,0.5652,0.5659,0.5652,0.5663,0.5663,0.566,0.5671,0.5672,0.5681,0.5668,0.5668,0.5668,0,0.5554,0.5563,0.5582,0.5591,0.5596,0.5605,0.5615,0.5624,0.5633,0.5636,0.5643,0.5645,0.5656,0.5652,0.5666,0.5661,0.5665,0.5669,0.5669,0.5671,0.5666,0.5672,0.5685,0.5686,0.5671,0.5671,0.567,0,0.5563,0.558,0.5593,0.5598,0.561,0.5615,0.5621,0.5629,0.5635,0.5644,0.5647,0.5657,0.5663,0.567,0.5674,0.5671,0.5687,0.5684,0.5689,0.5689,0.5693,0.5692,0.5705,0.5696,0.5696,0.5696,0.5696,0,0.5579,0.559,0.5597,0.5605,0.5616,0.5621,0.5632,0.5637,0.5644,0.5652,0.5654,0.5661,0.5667,0.5675,0.5678,0.5688,0.5691,0.5693,0.5694,0.5693,0.5692,0.5696,0.5695,0.5697,0.5697,0.5696,0.5696,0,0.5592,0.5597,0.5611,0.562,0.5622,0.563,0.5637,0.5644,0.5648,0.5658,0.5661,0.5667,0.5676,0.5681,0.5693,0.5695,0.5706,0.5706,0.5703,0.5703,0.5707,0.5706,0.5722,0.5724,0.5715,0.5715,0.5715,0,0.5602,0.561,0.5619,0.5624,0.5629,0.5638,0.5643,0.5648,0.5653,0.5662,0.5668,0.5677,0.5684,0.5698,0.5703,0.5711,0.5712,0.5717,0.5713,0.5711,0.5711,0.571,0.571,0.5717,0.5718,0.5718,0.5718,0,0.5619,0.562,0.5628,0.5636,0.5643,0.565,0.5656,0.566,0.5665,0.5671,0.568,0.5686,0.5696,0.5704,0.5713,0.5717,0.5718,0.5719,0.572,0.5719,0.5716,0.5716,0.5704,0.5718,0.5718,0.5718,0.5718,0.5718,0.5629,0.5636,0.5642,0.5651,0.5656,0.5661,0.5668,0.5672,0.5679,0.5688,0.569,0.5698,0.5705,0.5715,0.572,0.5726,0.5725,0.5727,0.5728,0.5728,0.5728,0.5715,0.5728,0.5728,0.5728,0.5728,0.5728,0,0.5645,0.5649,0.5656,0.5665,0.5671,0.567,0.5677,0.5682,0.5689,0.5695,0.5702,0.5711,0.5718,0.5723,0.573,0.5734,0.5735,0.5736,0.5736,0.5736,0.5729,0.5727,0.5735,0.5735,0.5735,0.5735,0.5735,0.5735,0.5654,0.5664,0.5665,0.5677,0.5681,0.5689,0.5693,0.5698,0.5702,0.5712,0.5717,0.5721,0.5726,0.5733,0.5739,0.574,0.5742,0.5743,0.5745,0.5738,0.5737,0.5736,0.5734,0.5744,0.5744,0.5751,0.5751,0.5751]}]]